Location: Eaton Estates
(41.3089°N, 82.0057°W)
Time: 13:13:51
(UTC+00:00)

COSMOS 2406 - Pass Details

Date: 17 June 2021
Orbit: 843 x 863 km, 71.0° (Epoch: 26 July)

Event Time Altitude Azimuth Distance (km) Brightness Sun altitude
Rises 09:04:47 0° 184° (S) 3,387 5.9 -8.3°
Reaches altitude 10° 09:07:18 10° 178° (S) 2,455 5.3 -7.9°
Maximum altitude 09:12:38 46° 107° (ESE) 1,124 4.2 -7.1°
Drops below altitude 10° 09:18:01 10° 36° (NE) 2,470 7.2 -6.4°
Sets 09:20:33 0° 30° (NNE) 3,411 7.9 -6.0°
